Location: Hernandez
(10.3704°N, 67.2181°W)
Time: 18:45:15
(UTC+00:00)

Cosmos 2369 Rocket - Pass Details

Date: 13 April 2024
Orbit: 830 x 850 km, 71.0° (Epoch: 22 May)

Event Time Altitude Azimuth Distance (km) Brightness Sun altitude
Rises 23:18:13 0° 205° (SSW) 3,405 5.5 -10.2°
Reaches altitude 10° 23:20:43 10° 210° (SSW) 2,469 4.9 -10.8°
Maximum altitude 23:26:14 54° 286° (WNW) 1,015 3.1 -12.1°
Drops below altitude 10° 23:31:46 10° 4° (N) 2,461 4.7 -13.4°
Sets 23:34:15 0° 8° (N) 3,393 5.4 -14.0°
